sat.trackr.live / text

‹ back to catalog

STARLINK-32471

NORAD 61968 · 2024-210K

PAYLOAD ACTIVE UNKNOWN

§ Identity

Operator
Country
US
Launch date
2024-11-14
Launch site
AFETR
Launch vehicle
Mass (kg)
RCS (m²)

Purposes: comms

External: N2YO · Heavens-Above · Gunter

§ Orbital elements

Epoch: 2026-05-24T20:52:24.021408Z

Period
94.27 min
Inclination
42.9998°
Eccentricity
0.0001168
Mean motion
15.27592662 rev/d
Perigee alt
482.2 km
Apogee alt
483.8 km
Semi-major
6,861.1 km
B*
6.2181e-4
RAAN
102.4323°
Arg perigee
286.8848°
Mean anomaly
73.1876°
Rev number
8,665

§ Raw data

STARLINK-324711 61968U 24210K   26144.86972247  .00016895  00000+0  62181-3 0  99902 61968  42.9998 102.4323 0001168 286.8848  73.1876 15.27592662 86650

JSON: /api/v1/satellites/61968 · /tle

For live sub-satellite position, see the globe view (requires WebGL).

§ Visibility from observer

Set your observer location to see the next 7 days of passes ≥ 10°. The values pass through the URL so the page stays shareable.

No JS? Fill the form by hand. The geolocation button needs JavaScript.